This demonstration page uses our WeatherBlox Daily Observations layout. Learn more.

Left ArrowRight Arrow

41.55636, -103.73856

Hourly Observations for July 4, 2018

Temp ( °F °C ) Dew Point ( °F °C ) Humidity (%) Winds ( mph kmh ) Pressure ( in mb ) Visibility ( mi km ) Precip ( " mm )
12:58 am 00:58 Mostly Cloudy 68 20 46 7.7 45 45 SSW 7 11 29.92 1013 10 16 N/A
1:58 am 01:58 Mostly Cloudy 66 19.1 46 8 49 49 SSE 9 15 29.92 1013 10 16 N/A
2:58 am 02:58 Partly Cloudy 64 18 48 9 56 56 ESE 7 11 29.93 1014 10 16 N/A
3:58 am 03:58 Mostly Cloudy 64 17.5 51 10.4 63 63 S 5 7 29.94 1014 10 16 N/A
4:58 am 04:58 Mostly Cloudy 62 16.5 52 11.3 72 72 SE 7 11 29.95 1014 10 16 N/A
5:58 am 05:58 Mostly Cloudy 60 15.7 54 12.2 80 80 N 5 7 30.03 1017 10 16 N/A
6:58 am 06:58 Mostly Cloudy 63 17.4 55 12.9 75 75 NE 9 15 30.03 1017 10 16 N/A
7:58 am 07:58 Mostly Sunny 65 18.1 55 12.7 71 71 N N/A 30.07 1018 10 16 N/A
8:58 am 08:58 Sunny 66 19 54 12.2 65 65 N 15 24 30.09 1019 10 16 N/A
9:58 am 09:58 Sunny 72 22.3 55 12.6 54 54 N 17 28 30.09 1019 10 16 N/A
10:58 am 10:58 Sunny 75 24 56 13.3 51 51 NNE 17 28 30.09 1019 10 16 N/A
11:58 am 11:58 Sunny 77 24.9 61 16 58 58 NE 17 28 30.10 1019 10 16 N/A
12:58 pm 12:58 Sunny 77 25.2 60 15.8 56 56 NE 16 26 30.11 1020 10 16 N/A
1:58 pm 13:58 Sunny 79 26 61 15.9 54 54 NNE 15 24 30.11 1020 10 16 N/A
2:58 pm 14:58 Sunny 79 26.3 60 15.5 51 51 E 13 20 30.14 1021 10 16 N/A
3:58 pm 15:58 Mostly Sunny 79 26 59 15.2 51 51 E 12 19 30.16 1021 10 16 N/A
4:58 pm 16:58 Sunny 79 25.9 59 15.2 52 52 E 9 15 30.16 1022 10 16 N/A
5:58 pm 17:58 Sunny 78 25.7 60 15.6 54 54 E 10 17 30.16 1021 10 16 N/A
6:58 pm 18:58 Mostly Sunny 76 24.5 61 15.9 59 59 ESE 12 19 30.16 1022 10 16 N/A
7:58 pm 19:58 Sunny 73 23 61 16 65 65 ESE 7 11 30.21 1023 10 16 N/A
8:58 pm 20:58 Mostly Cloudy 70 21 61 16 73 73 ESE 9 15 30.23 1024 10 16 N/A
9:58 pm 21:58 Mostly Cloudy with Nearby Thunderstorms 68 20 61 16.3 79 79 SSE 8 13 30.27 1025 10 16 N/A
10:58 pm 22:58 Mostly Cloudy 67 19.7 60 15.5 77 77 SE 17 28 30.20 1023 10 16 N/A
11:58 pm 23:58 Partly Cloudy 65 18.4 58 14.7 79 79 E 10 17 30.26 1025 10 16 N/A

Powered by AerisWeather